[[{"header":{"parameterUnit":"m.s-1","parameterCategory":1,"la1":30.2991,"la2":30.254,"lo1":-89.0895,"lo2":-89.0444,"dy":0.0017,"dx":0.0017,"nx":28,"ny":28,"refTime":"2023-10-28T21:00:00:Z","depth":0,"parameterNumber":2,"parameterNumberName":"U-component_of_WINDS"},"data":[0,0,0,0,0,0,0,0,0,0,0,0,0,0,0,0,0,0,0,0,0,0,0,0,0,0,0,0,0,0,0,0,0,0,0,0,0,0,0,0,0,0,0,0,0,0,0,0,0,0,0,0,0,0,0,0,0,0,-3.8719,-3.8719,0,-3.8668,-3.8667,-3.8667,-3.8567,-3.8565,-3.8563,-3.8561,-3.851,-3.8511,-3.8511,0,0,0,0,0,0,0,0,0,0,0,0,0,-3.8736,-3.8737,-3.8719,-3.8719,-3.8718,-3.8668,-3.8667,-3.8666,-3.8567,-3.8565,-3.8562,-3.856,-3.851,-3.8511,-3.8511,0,0,0,0,0,0,0,0,0,0,0,0,0,-3.8711,-3.8737,-3.872,-3.8663,-3.8657,-3.8668,-3.8667,-3.8666,-3.8568,-3.8565,-3.8562,-3.8559,-3.851,-3.8511,-3.8511,-3.8574,0,0,-3.8514,-3.8514,0,0,0,0,0,0,0,0,-3.8713,-3.8711,-3.8672,-3.8667,-3.866,-3.8621,-3.8654,-3.8635,-3.8568,-3.8602,-3.8561,-3.8558,-3.855,-3.8547,-3.8544,-3.8572,-3.857,-3.8514,-3.8514,-3.8514,-3.8515,0,0,0,0,0,0,0,-3.8715,-3.8713,-3.8699,-3.8671,-3.8664,-3.8641,-3.8634,-3.865,-3.8593,-3.8599,-3.8591,-3.8586,-3.8546,-3.8543,-3.8542,-3.8569,-3.8514,-3.8514,-3.8515,-3.8515,-3.8649,-3.8652,0,0,0,0,0,0,-3.8724,-3.8715,-3.8701,-3.8697,-3.868,-3.8643,-3.8635,-3.8636,-3.8592,-3.8583,-3.8589,-3.8582,-3.8543,-3.8541,-3.854,-3.8611,-3.8514,-3.8515,-3.8515,-3.8646,-3.865,-3.8654,0,0,0,0,0,0,-3.8725,-3.8724,-3.8703,-3.8704,-3.87,-3.8646,-3.8648,-3.8637,-3.8634,-3.8585,-3.8574,-3.8596,-3.8541,-3.8539,-3.8567,-3.8608,-3.8515,-3.8516,-3.8643,-3.8647,-3.8652,-3.8755,0,0,0,0,0,0,-3.8726,-3.8725,-3.8747,-3.8705,-3.87,-3.873,-3.865,-3.8638,-3.8635,-3.8626,-3.8589,-3.858,-3.8539,-3.8566,-3.8568,-3.8608,-3.8516,-3.8639,-3.8645,-3.865,-3.8748,-3.8763,-3.8776,0,0,0,0,0,-3.8727,-3.8778,-3.8749,-3.8748,-3.8726,-3.8732,-3.8729,-3.8679,-3.8639,-3.8661,-3.8631,-3.8582,-3.8604,-3.857,-3.8571,-3.8611,-3.8636,-3.8643,-3.865,-3.8742,-3.876,-3.8776,0,0,0,0,0,0,-3.8826,-3.8771,-3.8738,-3.8777,-3.876,-3.8715,-3.8742,-3.87,-3.8695,-3.8686,-3.8625,-3.8618,-3.8655,-3.8636,-3.8599,-3.8672,-3.8612,-3.862,-3.8682,-3.8699,-3.8713,-3.8716,-3.8517,0,0,0,0,0,-3.8852,-3.8861,-3.8813,-3.8852,-3.8846,-3.8796,-3.8797,-3.876,-3.874,-3.8733,-3.8703,-3.8687,-3.8691,-3.8694,-3.8694,-3.8746,-3.8737,-3.8774,-3.8788,-3.88,-3.8807,-3.8835,-3.8851,-3.8677,-3.8677,-3.8677,0,0,-3.8907,-3.8878,-3.8887,-3.8872,-3.8854,-3.8866,-3.879,-3.8805,-3.8814,-3.8735,-3.876,-3.8739,-3.8717,-3.8757,-3.8774,-3.8743,-3.8854,-3.8809,-3.8819,-3.8819,-3.8844,-3.8861,-3.8875,-3.8682,-3.8681,-3.868,0,0,-3.9012,-3.8991,-3.9021,-3.9006,-3.8981,-3.8948,-3.8956,-3.8918,-3.8901,-3.8925,-3.8867,-3.8878,-3.8884,-3.8872,-3.8866,-3.8971,-3.8926,-3.8973,-3.9045,-3.9073,-3.9087,-3.9099,-3.9137,-3.9151,-3.898,-3.898,-3.8981,0,-3.9082,-3.9096,-3.9043,-3.9062,-3.9058,-3.8988,-3.902,-3.9008,-3.8985,-3.8984,-3.895,-3.8959,-3.8939,-3.8977,-3.9003,-3.9,-3.9009,-3.8976,-3.9089,-3.9101,-3.9111,-3.9147,-3.9161,-3.8986,-3.8986,-3.8985,-3.8984,0,-3.9185,-3.9196,-3.9225,-3.9204,-3.9203,-3.9229,-3.9181,-3.9187,-3.9152,-3.9124,-3.9151,-3.9125,-3.912,-3.9127,-3.9092,-3.9161,-3.9142,-3.91,-3.9039,-3.9134,-3.9167,-3.918,-3.8995,-3.8993,-3.8991,-3.8989,0,0,-3.9348,-3.93,-3.9311,-3.9302,-3.9271,-3.9279,-3.9303,-3.9298,-3.9305,-3.9293,-3.9312,-3.9321,-3.9283,-3.9277,-3.9241,-3.9265,-3.9352,-3.922,-3.9218,-3.9245,-3.9427,-3.9459,-3.9476,-3.9323,-3.9325,-3.9327,-3.9429,0,-3.9445,-3.9482,-3.9437,-3.9484,-3.9494,-3.943,-3.9452,-3.9436,-3.9411,-3.9418,-3.9391,-3.9399,-3.9346,-3.9343,-3.9364,-3.9336,-3.9387,-3.9329,-3.9341,-3.9342,-3.9348,-3.9492,-3.9525,-3.9623,-3.9442,-3.9444,-3.9445,0,-3.9563,-3.9557,-3.9605,-3.9574,-3.9577,-3.9596,-3.9589,-3.9596,-3.9579,-3.9559,-3.9554,-3.9512,-3.9535,-3.9478,-3.951,-3.9471,-3.9474,-3.9462,-3.9465,-3.9463,-3.9399,-3.9495,-3.9653,-3.9668,-3.9465,-3.9463,-3.9462,0,-3.9677,-3.9681,-3.9711,-3.9705,-3.9669,-3.9685,-3.9671,-3.965,-3.9651,-3.9646,-3.9646,-3.9645,-3.9644,-3.9644,-3.9603,-3.9565,-3.9642,-3.958,-3.9627,-3.9628,-3.9644,-3.9644,-3.9805,-3.9648,-3.9648,-3.9647,-3.9647,0,-3.9791,-3.9823,-3.9762,-3.978,-3.9816,-3.9765,-3.9802,-3.9781,-3.9764,-3.9779,-3.9724,-3.9739,-3.9685,-3.9695,-3.9664,-3.9696,-3.9696,-3.9682,-3.9673,-3.9686,-3.9688,-3.9687,-3.9679,-3.9651,-3.965,-3.965,-3.9649,0,-3.9923,-3.9884,-3.9912,-3.9877,-3.9869,-3.9896,-3.9866,-3.9883,-3.9856,-3.9876,-3.9877,-3.9835,-3.9845,-3.9805,-3.9807,-3.9786,-3.9835,-3.9815,-3.9841,-3.9834,-3.9884,-3.988,-4.0049,-4.0069,-3.99,-3.9902,-3.9903,0,-3.9997,-4.0021,-3.9988,-3.9994,-3.9983,-3.9993,-3.9994,-3.9946,-3.995,-3.9934,-3.9953,-3.9958,-3.9959,-3.9978,-3.9948,-3.9951,-3.993,-3.999,-3.993,-3.9944,-3.9932,-3.993,-3.9933,-4.0002,-4.0004,-4.0005,-4.0007,0,-4.0133,-4.0114,-4.0117,-4.0115,-4.0118,-4.0113,-4.0106,-4.0114,-4.0063,-4.007,-4.0079,-4.008,-4.0084,-4.009,-4.0087,-4.0074,-4.0033,-4.0026,-4.0037,-4.005,-4.0065,-4.0058,-3.9874,-4.0022,-4.002,-4.0019,-4.0019,-4.0018,-4.0238,-4.0257,-4.0238,-4.0245,-4.0234,-4.0229,-4.0244,-4.0219,-4.0226,-4.0224,-4.0197,-4.0212,-4.0197,-4.0189,-4.018,-4.0193,-4.0165,-4.0181,-4.0185,-4.0189,-4.0198,-4.0064,-4.0192,-4.0192,-4.0191,-4.0191,-4.019,0,-4.0372,-4.0357,-4.0364,-4.0355,-4.0362,-4.0323,-4.0313,-4.0321,-4.0335,-4.0324,-4.0327,-4.0339,-4.0346,-4.0319,-4.0322,-4.0337,-4.0319,-4.034,-4.0338,-4.0336,-4.0222,-4.0212,-4.0355,-4.0355,-4.0355,-4.0355,-4.0355,-4.0355,-4.0442,-4.0472,-4.0451,-4.0477,-4.0462,-4.0476,-4.0474,-4.047,-4.0462,-4.0477,-4.0483,-4.0465,-4.0448,-4.0451,-4.0456,-4.0448,-4.0452,-4.048,-4.0466,-4.036,-4.0344,-4.0328,-4.0319,-4.0482,-4.0482,-4.0578,-4.0579,-4.058]},{"header":{"parameterUnit":"m.s-1","parameterCategory":1,"la1":30.2991,"la2":30.254,"lo1":-89.0895,"lo2":-89.0444,"dy":0.0017,"dx":0.0017,"nx":28,"ny":28,"refTime":"2023-10-28T21:00:00:Z","depth":0,"parameterNumber":3,"parameterNumberName":"V-component_of_WINDS"},"data":[0,0,0,0,0,0,0,0,0,0,0,0,0,0,0,0,0,0,0,0,0,0,0,0,0,0,0,0,0,0,0,0,0,0,0,0,0,0,0,0,0,0,0,0,0,0,0,0,0,0,0,0,0,0,0,0,0,0,1.8684,1.8683,0,1.8636,1.8636,1.8635,1.8715,1.8718,1.8721,1.8723,1.8667,1.8663,1.8659,0,0,0,0,0,0,0,0,0,0,0,0,0,1.8839,1.8836,1.8684,1.8683,1.8683,1.8636,1.8636,1.8635,1.8715,1.8718,1.8722,1.8725,1.8668,1.8663,1.8658,0,0,0,0,0,0,0,0,0,0,0,0,0,1.8779,1.8835,1.8684,1.8717,1.872,1.8636,1.8636,1.8635,1.8714,1.8718,1.8722,1.8726,1.8669,1.8664,1.8658,1.8537,0,0,1.8639,1.8636,0,0,0,0,0,0,0,0,1.8783,1.8774,1.8713,1.8715,1.8718,1.8686,1.867,1.8602,1.8713,1.8716,1.8724,1.8728,1.8669,1.8663,1.8645,1.8534,1.8532,1.8638,1.8635,1.8632,1.863,0,0,0,0,0,0,0,1.8787,1.8776,1.8665,1.8712,1.8715,1.8733,1.8729,1.8657,1.867,1.8716,1.8722,1.8716,1.8671,1.8651,1.8644,1.8531,1.8638,1.8633,1.8629,1.8627,1.832,1.8316,0,0,0,0,0,0,1.8788,1.8779,1.8666,1.8664,1.8761,1.8727,1.8722,1.8692,1.8671,1.8672,1.8712,1.8719,1.8659,1.8651,1.8643,1.85,1.8632,1.8626,1.8623,1.8325,1.8319,1.8315,0,0,0,0,0,0,1.8791,1.8777,1.8668,1.8723,1.8711,1.872,1.8685,1.8689,1.8669,1.8668,1.867,1.8689,1.8662,1.8651,1.8564,1.85,1.8623,1.8618,1.833,1.8323,1.8317,1.8215,0,0,0,0,0,0,1.8795,1.8778,1.8733,1.8721,1.8707,1.8591,1.8681,1.8685,1.8659,1.8668,1.8647,1.8647,1.8665,1.8572,1.8557,1.8493,1.8613,1.8336,1.8327,1.8319,1.8224,1.8205,1.819,0,0,0,0,0,1.88,1.8704,1.873,1.8716,1.8652,1.8587,1.8579,1.8603,1.8653,1.8608,1.8608,1.8648,1.851,1.8563,1.8547,1.848,1.834,1.8329,1.832,1.8231,1.8209,1.819,0,0,0,0,0,0,1.8704,1.8703,1.8732,1.863,1.8609,1.8601,1.8544,1.8578,1.854,1.855,1.858,1.8574,1.848,1.8471,1.853,1.8363,1.8433,1.8419,1.8371,1.835,1.8333,1.8336,1.8608,0,0,0,0,0,1.8672,1.8622,1.8623,1.8532,1.852,1.8534,1.8507,1.8528,1.8506,1.8496,1.849,1.8465,1.8416,1.8383,1.8338,1.8224,1.822,1.817,1.8153,1.8139,1.8126,1.8066,1.8043,1.8282,1.8282,1.8282,0,0,1.8603,1.8596,1.8562,1.8513,1.8499,1.8444,1.8526,1.8464,1.8424,1.8486,1.8404,1.8398,1.8372,1.8271,1.8226,1.8261,1.806,1.8127,1.8115,1.811,1.8053,1.803,1.801,1.8275,1.8276,1.8277,0,0,1.8449,1.844,1.8364,1.8349,1.8329,1.8339,1.8321,1.8309,1.8309,1.8227,1.8273,1.8225,1.814,1.812,1.8099,1.7942,1.7977,1.7926,1.7835,1.7776,1.7757,1.7741,1.7683,1.7663,1.7914,1.7913,1.7913,0,1.8365,1.8287,1.832,1.8256,1.8233,1.8291,1.8213,1.8197,1.8161,1.8143,1.8184,1.808,1.8067,1.7962,1.7924,1.7905,1.7884,1.7927,1.7758,1.7742,1.7726,1.7672,1.7651,1.7907,1.7908,1.7908,1.7909,0,1.8185,1.813,1.8071,1.8039,1.8009,1.7939,1.7959,1.7925,1.7949,1.7955,1.7871,1.7858,1.7812,1.7789,1.7811,1.7687,1.771,1.7754,1.7824,1.7697,1.7647,1.7626,1.7898,1.7901,1.7902,1.7904,0,0,1.7966,1.7956,1.7933,1.792,1.7902,1.786,1.7792,1.775,1.772,1.7694,1.7637,1.7566,1.7607,1.7583,1.7604,1.7552,1.7427,1.7602,1.7602,1.7569,1.729,1.7255,1.7231,1.7452,1.7448,1.7445,1.7292,0,1.7813,1.7699,1.7727,1.7613,1.7563,1.7619,1.756,1.7542,1.7546,1.7503,1.7507,1.7456,1.7515,1.7501,1.7452,1.7453,1.7371,1.7465,1.7397,1.7394,1.7399,1.7205,1.7168,1.7023,1.7272,1.7269,1.7266,0,1.7618,1.7588,1.747,1.7463,1.7443,1.7389,1.7354,1.7313,1.7294,1.7301,1.7275,1.7307,1.7238,1.7312,1.7218,1.7281,1.7255,1.7252,1.7247,1.7239,1.7321,1.719,1.6978,1.6955,1.7236,1.7238,1.724,0,1.7469,1.7399,1.732,1.7307,1.7297,1.7258,1.7251,1.7237,1.7211,1.7179,1.7162,1.7122,1.7099,1.7067,1.7086,1.7139,1.6988,1.7064,1.699,1.6989,1.6953,1.6955,1.6732,1.694,1.694,1.6941,1.6941,0,1.7293,1.7218,1.7253,1.7203,1.7121,1.7155,1.7072,1.7072,1.7059,1.701,1.7056,1.7008,1.7037,1.6991,1.7006,1.6925,1.6915,1.6917,1.6921,1.6912,1.6911,1.6893,1.6903,1.6935,1.6936,1.6938,1.6939,0,1.7111,1.7132,1.7049,1.7048,1.7046,1.6985,1.6983,1.6937,1.6947,1.6883,1.687,1.6884,1.6832,1.685,1.6793,1.6804,1.6701,1.6719,1.6707,1.6711,1.6636,1.6642,1.6392,1.636,1.6591,1.6588,1.6587,0,1.6997,1.6941,1.6936,1.6907,1.6899,1.6852,1.6827,1.6858,1.6829,1.6805,1.6761,1.6715,1.6679,1.6594,1.6597,1.6555,1.6571,1.6487,1.6565,1.6557,1.6568,1.657,1.6564,1.647,1.6467,1.6465,1.6463,0,1.6792,1.6806,1.6768,1.6734,1.6703,1.6677,1.6655,1.6629,1.6659,1.6624,1.6574,1.6547,1.6492,1.6444,1.6407,1.6398,1.6434,1.6439,1.642,1.6408,1.6403,1.6403,1.6663,1.6444,1.6446,1.6447,1.6448,1.6449,1.6639,1.6593,1.6582,1.6539,1.6527,1.6506,1.6463,1.6468,1.6428,1.6387,1.6408,1.635,1.6334,1.6288,1.6274,1.6228,1.626,1.6232,1.6224,1.6216,1.6206,1.6413,1.6221,1.6222,1.6222,1.6223,1.6223,0,1.6435,1.6432,1.6393,1.6362,1.6328,1.637,1.6348,1.6316,1.6265,1.6249,1.6214,1.6156,1.6112,1.6113,1.6071,1.6033,1.6049,1.6021,1.6023,1.602,1.618,1.6201,1.6009,1.6009,1.6009,1.6009,1.6009,1.6009,1.6325,1.6248,1.6261,1.6179,1.6176,1.6121,1.6106,1.6086,1.6073,1.6008,1.5972,1.5975,1.5965,1.5923,1.5883,1.5885,1.5866,1.5832,1.5839,1.5988,1.6009,1.6029,1.6048,1.5828,1.5828,1.5683,1.5681,1.568]}]]